Regional Weather Roundup
Issued by NWS

Home | Current Version | Previous Version | Text Only | Print | Product List | Glossary Off
Versions: 1 2 3 4 5 6 7 8 9 10 11 12 13 14 15 16 17 18 19 20 21 22 23 24 25 26 27 28 29 30 31 32 33 34 35 36 37 38 39 40 41 42 43 44 45 46 47 48 49 50

000
ASUS43 KMPX 270501
RWRMN
WEATHER ROUNDUP FOR MINNESOTA
NATIONAL WEATHER SERVICE TWIN CITIES/CHANHASSEN MN
1200 AM CDT WED AUG 27 2014


NOTE: "FAIR" INDICATES FEW OR NO CLOUDS BELOW 12,000 FEET WITH NO
SIGNIFICANT WEATHER AND/OR OBSTRUCTIONS TO VISIBILITY. N/A MEANS
CURRENT SKY AND/OR WEATHER CONDITIONS ARE NOT AVAILABLE.

MNZ060>063-068>070-270600-
   Twin Cities Metro

CITY           SKY/WX    TMP DP  RH WIND       PRES   REMARKS
TWIN CITIES    LGT RAIN  66  56  70 N3        30.19R
ST PAUL        LGT RAIN  66  54  65 N5        30.19R
CRYSTAL        CLOUDY    66  55  67 N3        30.18R
BLAINE         LGT RAIN  64  57  77 N5        30.19R
LAKEVILLE      CLOUDY    63  57  82 CALM      30.18R
EDEN PRAIRIE   CLOUDY    65  57  75 N3        30.18R
SOUTH ST PAUL  CLOUDY    67  55  65 N6        30.18R
LAKE ELMO      CLOUDY    63  55  77 CALM      30.19S
$$
MNZ001>005-007-008-013>017-022>024-027-028-270600-
   Northwest Minnesota

CITY           SKY/WX    TMP DP  RH WIND       PRES   REMARKS
BEMIDJI        PTCLDY    51  51  99 CALM      30.19S FOG
HALLOCK        CLEAR     54  48  82 SE7       30.15R
ROSEAU         CLEAR     46  43  87 S5        30.17S
WARROAD        PTCLDY    46  43  87 S6        30.17F
THIEF RVR FALL CLEAR     54  48  82 SE6       30.17S
CROOKSTON      PTCLDY    55  54  94 S5        30.17S
FOSSTON        PTCLDY    48  46  93 CALM      30.20R
DETROIT LAKES  MOCLDY    59  55  88 CALM      30.21R
MOORHEAD       CLOUDY    61  61 100 CALM      30.20S
PARK RAPIDS    CLOUDY    58  56  93 CALM      30.19S
MAHNOMEN       CLOUDY    56  55  96 CALM      30.19R
$$
MNZ006-009>011-018-025>026-270600-
   North Central Minnesota

CITY           SKY/WX    TMP DP  RH WIND       PRES   REMARKS
BAUDETTE       PTCLDY    47  45  93 SW5       30.17S
FLAG ISLAND    CLEAR     54  46  76 SW6       30.15S
INTL FALLS     PTCLDY    41  40  96 W3        30.17R
WASKISH        PTCLDY    45  43  93 CALM      30.19R FOG
LONGVILLE      CLOUDY    54  54 100 CALM      30.20R
GRAND RAPIDS   CLOUDY    54  50  87 CALM      30.20R
COOK           CLOUDY    52  52 100 CALM      30.19R
WALKER         CLOUDY    53  52  97 CALM      30.21R
$$
MNZ012-019>021-037-270600-
   Northeast Minnesota

CITY           SKY/WX    TMP DP  RH WIND       PRES   REMARKS
DULUTH         CLOUDY    56  48  74 NW6       30.18R
ELY            LGT RAIN  52  48  87 CALM      30.16F
HIBBING        LGT RAIN  52  49  89 CALM      30.19R
EVELETH        LGT RAIN  54  48  82 CALM      30.19R
DULUTH HARBOR  CLOUDY    63  52  67 CALM      30.19R
TWO HARBORS    CLOUDY    55  46  71 NW3       30.15R
GRAND MARAIS     N/A     57  50  77 CALM      30.14R
G MARAIS ARPRT MOCLDY    50  43  76 CALM      30.16S
$$
MNZ029>031-032-039>041-046>048-054>057-064-270600-
   West Central Minnesota

CITY           SKY/WX    TMP DP  RH WIND       PRES   REMARKS
FERGUS FALLS   LGT RAIN  59  57  94 CALM      30.21S
WHEATON        CLOUDY    57  55  94 CALM      30.22R
MORRIS         CLOUDY    61  57  88 CALM      30.20R
ALEXANDRIA     LGT RAIN  60  57  89 NW7       30.22R
ELBOW LAKE     RAIN      58  56  94 N3        30.20R
WADENA         LGT RAIN  57  55  94 SW3       30.21R
GLENWOOD       CLOUDY    59  55  88 CALM      30.21R
BENSON         CLOUDY    59  57  94 CALM      30.20R
ORTONVILLE     CLOUDY    61  57  88 CALM      30.20R
MADISON        CLOUDY    63  61  94 CALM      30.19S
WILLMAR        MOCLDY    63  57  82 CALM      30.20F
$$
MNZ033>034-036-042>043-049>051-058-059-270600-
   Central Minnesota

CITY           SKY/WX    TMP DP  RH WIND       PRES   REMARKS
ST CLOUD       CLOUDY    63  58  83 N3        30.19S
SAUK CENTRE    CLOUDY    60  56  89 CALM      30.21R
PAYNESVILLE    HVY RAIN  58  56  95 CALM      30.20S
AITKIN         MIX PCPN  57  52  82 CALM      30.20R
PINE RIVER     CLOUDY    55  55 100 CALM      30.23R
BRAINERD       LGT RAIN  57  55  93 CALM      30.21R
STAPLES        DRIZZLE   55  55 100 CALM      30.21S
LONG PRAIRIE   CLOUDY    59  57  94 CALM      30.22R
LITTLE FALLS   RAIN      59  54  82 CALM      30.20S
LITCHFIELD     CLOUDY    63  61  94 CALM      30.21R
BUFFALO        LGT RAIN  62  56  80 CALM      30.21R
MAPLE LAKE     LGT RAIN  61  59  91 CALM      30.20S
$$
MNZ037-044-045-052-053-270600-
   East Central Minnesota

CITY           SKY/WX    TMP DP  RH WIND       PRES   REMARKS
MORA           CLOUDY    55  52  88 CALM      30.21R
CAMBRIDGE      LGT RAIN  63  55  77 CALM      30.18R
RUSH CITY      CLOUDY    59  56  89 CALM      30.20R
HINCKLEY       CLOUDY    59  54  82 NW3       30.20R
CLOQUET        LGT RAIN  55  48  76 W3        30.19R
MCGREGOR       CLOUDY    55  52  88 CALM      30.21R
$$
MNZ071>073-080-081-089-090-097-098-270600-
   Southwest Minnesota

CITY           SKY/WX    TMP DP  RH WIND       PRES   REMARKS
MONTEVIDEO     CLOUDY    61  57  88 S5        30.19F
GRANITE FALLS  CLOUDY    61  56  84 CALM      30.21R
CANBY          CLOUDY    60  57  91 CALM      30.21S
MARSHALL       CLOUDY    63  55  77 N5        30.19S
REDWOOD FALLS  CLOUDY    64  57  78 NE3       30.19R
OLIVIA         CLOUDY    61  55  82 NE5       30.19R
PIPESTONE      MOCLDY    61  57  88 E3        30.19S
WINDOM         CLOUDY    63  57  82 CALM      30.20R
WORTHINGTON    MOCLDY    61  57  88 CALM      30.20F
JACKSON        CLOUDY    59  55  88 CALM      30.20S
TRACY          CLOUDY    64  58  82 CALM      30.20S
$$
MNZ065>067-074>077-082>085-091>093-270600-
   South Central Minnesota

CITY           SKY/WX    TMP DP  RH WIND       PRES   REMARKS
MANKATO        MOCLDY    64  55  72 CALM      30.18R
NEW ULM          N/A     64  59  82 CALM      30.18S
ST JAMES       CLOUDY    61  57  88 CALM      30.19S
FAIRMONT       PTCLDY    57  54  88 CALM      30.18S
GLENCOE        RAIN      64  56  74 CALM      30.17F
FARIBAULT      CLOUDY    64  57  77 CALM      30.18S
OWATONNA       MOCLDY    61  57  88 CALM      30.18R
WASECA         MOCLDY    55  52  88 CALM      30.20R
ALBERT LEA       N/A     59  57  94 CALM      30.18S
$$
MNZ078>079-086>088-094>096-270600-
   Southeast Minnesota

CITY           SKY/WX    TMP DP  RH WIND       PRES   REMARKS
ROCHESTER      PTCLDY    60  56  86 NW5       30.19R
RED WING       MOCLDY    63  57  82 CALM      30.16S
STANTON        MOCLDY    62  58  87 CALM      30.16S
DODGE CENTER   CLOUDY    61  59  94 CALM      30.18S
WINONA         MOCLDY    61  59  94 NW3       30.17R
AUSTIN         PTCLDY    61  57  88 CALM      30.18S
PRESTON        MOCLDY    61  59  94 CALM      30.19R
$$
ABBREVIATIONS USED IN REMARKS
   TC - TEMPERATURES IN CELSIUS
  WCI - WIND CHILL INDEX
   HX - HEAT INDEX
  VSB - VISIBILITY
$$



USA.gov is the U.S. government's official web portal to all federal, state and local government web resources and services.